sat.trackr.live / text

‹ back to catalog

OTB

NORAD 44341 · 2019-036C

PAYLOAD ACTIVE UNKNOWN

§ Identity

Operator
Country
US
Launch date
2019-06-25
Launch site
AFETR
Launch vehicle
Mass (kg)
RCS (m²)

External: N2YO · Heavens-Above · Gunter

§ Orbital elements

Epoch: 2026-05-25T04:15:29.888928Z

Period
98.82 min
Inclination
23.9954°
Eccentricity
0.0011236
Mean motion
14.57161389 rev/d
Perigee alt
694.4 km
Apogee alt
710.3 km
Semi-major
7,080.5 km
B*
2.0147e-4
RAAN
126.0808°
Arg perigee
111.6335°
Mean anomaly
248.5355°
Rev number
36,801

§ Raw data

OTB1 44341U 19036C   26145.17742927  .00001145  00000+0  20147-3 0  99992 44341  23.9954 126.0808 0011236 111.6335 248.5355 14.57161389368013

JSON: /api/v1/satellites/44341 · /tle

For live sub-satellite position, see the globe view (requires WebGL).

§ Visibility from observer

Set your observer location to see the next 7 days of passes ≥ 10°. The values pass through the URL so the page stays shareable.

No JS? Fill the form by hand. The geolocation button needs JavaScript.